Location: ????
(32.1228°N, 34.8377°E)
Time: 00:52:35
(UTC+00:00)

SL-16 R/B - Pass Details

Date: 21 September 2020
Orbit: 842 x 846 km, 71.0° (Epoch: 21 October)

Event Time Altitude Azimuth Distance (km) Brightness Sun altitude
Exits shadow 02:18:05 24° 257° (WSW) 1,683 3.1 -15.6°
Maximum altitude 02:20:21 32° 297° (WNW) 1,411 3.0 -15.1°
Drops below altitude 10° 02:25:23 10° 359° (N) 2,467 4.7 -14.1°
Sets 02:28:06 0° 10° (N) 3,406 5.6 -13.5°
